DW5759 Weather Reports


time (UTC)temp
C
wind
direction
speed
KPH
gust
KPH
rain 1hr
cm
rain 24hr
cm
rain mn
cm
humidity
%
barometer
mb
20260510104506 10 221 0.0 0.0 0.00 0.76 0.00 95 1011.1
20260510103010 10 221 0.0 0.0 0.00 0.79 0.00 95 1010.9
20260510101504 10 221 0.0 0.0 0.00 0.79 0.00 95 1010.8
20260510100004 10 219 0.0 0.0 0.00 0.81 0.00 95 1010.7
20260510094503 10 346 0.0 0.0 0.00 0.81 0.00 95 1010.6
20260510093009 10 346 0.0 0.0 0.00 0.84 0.00 95 1010.3
20260510091512 10 346 0.0 0.0 0.00 0.86 0.00 95 1010.3
20260510090003 10 346 0.0 0.0 0.00 0.86 0.00 95 1010.2
20260510084505 10 346 0.0 0.0 0.00 0.91 0.00 95 1009.9
20260510083004 10 218 0.0 0.0 0.00 0.94 0.00 95 1009.8
20260510081511 10 1 0.0 0.0 0.00 0.94 0.00 95 1010.2
20260510080010 9 1 0.0 0.0 0.00 0.97 0.00 95 1010.1
20260510074504 9 1 0.0 0.0 0.00 1.02 0.00 94 1010.3
20260510073005 10 1 0.0 0.0 0.00 1.07 0.00 95 1010.6
20260510071508 10 1 0.0 0.0 0.00 1.14 0.00 95 1010.6
20260510070022 10 1 0.0 0.0 0.00 1.14 0.00 95 1010.7
20260510064523 9 1 0.0 0.0 0.00 1.14 0.00 95 1010.8
20260510063019 9 1 0.0 0.0 0.00 1.14 0.00 94 1010.6
20260510061503 9 353 0.0 0.0 0.00 1.14 0.00 95 1010.2
20260510060008 9 316 0.0 0.0 0.00 1.14 0.00 94 1010.4
20260510054518 9 5 0.0 0.0 0.00 1.14 0.00 94 1010.2
20260510053026 9 360 0.0 0.0 0.00 1.14 0.00 94 1010.3
20260510051526 9 360 0.0 0.0 0.00 1.14 0.00 94 1010.4
20260510050014 9 360 0.0 0.0 0.00 1.14 0.00 94 1010.3
20260510044514 10 360 0.0 0.0 0.00 1.14 0.00 94 1010.2
20260510043017 10 360 0.0 0.0 0.00 1.14 0.00 94 1010.3
20260510041522 10 360 0.0 0.0 0.00 1.14 0.00 94 1010.1
20260510040029 10 360 0.0 0.0 0.00 1.14 0.00 94 1010.1
20260510034522 10 360 0.0 0.0 0.00 1.14 1.14 94 1010.1
20260510033018 10 360 0.0 0.0 0.00 1.14 1.14 94 1010.3
20260510031519 10 360 0.0 0.0 0.00 1.14 1.14 94 1010.4
20260510030020 10 359 0.0 0.0 0.00 1.14 1.14 94 1010.4
20260510024526 10 352 0.0 0.0 0.00 1.14 1.14 94 1010.3
20260510023007 10 352 0.0 0.0 0.00 1.14 1.14 94 1010.1
20260510021512 11 352 0.0 0.0 0.00 1.14 1.14 94 1010.0
20260510020018 11 347 0.0 0.0 0.00 1.14 1.14 94 1009.7
20260510014523 11 347 0.0 0.0 0.00 1.14 1.14 94 1010.0
20260510013004 11 347 0.0 0.0 0.00 1.14 1.14 94 1009.8
20260510011512 11 347 0.0 0.0 0.00 1.14 1.14 94 1009.6
20260510010015 11 347 0.0 0.0 0.00 1.14 1.14 93 1009.7
20260510004529 11 1 0.0 0.0 0.00 1.14 1.14 94 1009.5
20260510003003 11 284 0.0 0.0 0.00 1.14 1.14 93 1009.6
20260510001507 11 187 0.0 0.0 0.00 1.14 1.14 93 1009.3
20260510000028 11 195 0.0 0.0 0.00 1.14 1.14 93 1009.0
20260509234528 11 191 0.0 0.0 0.00 1.14 1.14 93 1008.9
20260509233016 11 29 0.0 1.6 0.00 1.14 1.14 93 1008.2
20260509231504 12 99 0.0 8.0 0.00 1.14 1.14 93 1008.2
20260509230004 12 307 0.0 3.2 0.00 1.14 1.14 93 1008.4
20260509224529 12 58 0.0 4.8 0.00 1.14 1.14 93 1008.6
20260509223016 12 70 0.0 0.0 0.00 1.14 1.14 94 1008.5
20260509221530 12 71 0.0 0.0 0.00 1.14 1.14 93 1008.6
20260509220021 12 75 0.0 0.0 0.00 1.14 1.14 93 1008.8
20260509214527 12 209 0.0 4.8 0.00 1.14 1.14 93 1008.6
20260509213013 12 151 0.0 0.0 0.03 1.14 1.14 94 1008.7
20260509211518 12 359 0.0 0.0 0.03 1.14 1.14 93 1008.6
20260509210022 12 150 0.0 0.0 0.03 1.14 1.14 93 1008.7
20260509204507 11 24 0.0 4.8 0.03 1.14 1.14 94 1009.2
20260509203010 11 166 0.0 0.0 0.00 1.12 1.12 94 1009.2
20260509201516 11 354 0.0 0.0 0.03 1.12 1.12 94 1009.6
20260509200018 11 117 0.0 3.2 0.05 1.12 1.12 94 1009.8
20260509194527 11 77 0.0 0.0 0.08 1.12 1.12 94 1010.0
20260509193009 11 139 0.0 0.0 0.13 1.12 1.12 94 1010.3
20260509191510 11 140 0.0 0.0 0.13 1.09 1.09 94 1010.6
20260509190040 11 193 0.0 0.0 0.15 1.07 1.07 93 1010.8
20260509184531 10 195 0.0 0.0 0.18 1.04 1.04 93 1010.8
20260509183029 10 217 0.0 0.0 0.15 0.99 0.99 93 1010.9
20260509181510 10 219 0.0 1.6 0.15 0.97 0.97 93 1010.7
20260509180027 10 275 0.0 0.0 0.13 0.91 0.91 93 1010.7
20260509174524 10 275 0.0 0.0 0.10 0.86 0.86 92 1010.7
20260509173021 10 275 0.0 0.0 0.10 0.84 0.84 93 1010.7
20260509171534 10 275 0.0 0.0 0.13 0.81 0.81 92 1010.6
20260509170023 10 275 0.0 0.0 0.13 0.79 0.79 92 1010.8
20260509164515 10 275 0.0 0.0 0.13 0.76 0.76 92 1011.1
20260509163004 10 275 0.0 0.0 0.10 0.74 0.74 93 1011.5
20260509161522 9 278 0.0 0.0 0.08 0.69 0.69 92 1011.5
20260509160011 9 260 0.0 0.0 0.08 0.66 0.66 92 1011.7
20260509154511 9 331 0.0 0.0 0.05 0.64 0.64 92 1011.8
20260509153005 9 331 0.0 0.0 0.08 0.64 0.64 92 1011.8
20260509151503 8 330 0.0 0.0 0.08 0.61 0.61 92 1012.0
20260509150029 8 330 0.0 0.0 0.08 0.58 0.58 93 1012.1
20260509144508 8 330 0.0 0.0 0.10 0.58 0.58 93 1012.0
20260509143018 8 348 0.0 0.0 0.08 0.56 0.56 93 1012.2
20260509141508 8 348 0.0 0.0 0.08 0.53 0.53 93 1012.2
20260509140005 8 348 0.0 0.0 0.05 0.51 0.51 93 1012.3
20260509134508 8 348 0.0 0.0 0.03 0.48 0.48 93 1012.4
20260509133012 7 348 0.0 0.0 0.03 0.48 0.48 93 1012.2
20260509131518 7 359 0.0 0.0 0.00 0.46 0.46 93 1012.1
20260509130039 7 359 0.0 0.0 0.03 0.46 0.46 93 1012.1
20260509124504 7 359 0.0 0.0 0.03 0.46 0.46 93 1012.1
20260509123018 7 359 0.0 0.0 0.05 0.46 0.46 93 1012.2
20260509121520 7 349 0.0 0.0 0.08 0.46 0.46 93 1012.5
20260509120020 6 349 0.0 0.0 0.05 0.43 0.43 93 1012.7
20260509114503 6 349 0.0 0.0 0.05 0.43 0.43 93 1012.7
20260509113007 6 349 0.0 0.0 0.05 0.41 0.41 93 1012.5
20260509111513 6 349 0.0 0.0 0.03 0.38 0.38 93 1012.5
20260509110022 6 349 0.0 0.0 0.05 0.38 0.38 93 1012.5